Home   Weather   Valletta   Past weeks

Flag for Malta Past Weather in Valletta, Malta — Yesterday and Last 2 Weeks

Now
57 °F

Passing clouds.


Feels Like: 56 °F
Forecast: 58 / 67 °F
Wind: 7 mph from West

Location: Luqa

Current Time: Dec 2, 2016 at 11:36:28 pm

Latest Report: Dec 2, 2016 at 10:45 pm


Visibility: N/A

Pressure: 30.09 "Hg

Humidity: 63%

Dew Point: 45 °F

Location of VallettaLocation

Past Weather in Valletta — Graph

°F

Valletta Temperature Yesterday

Maximum temperature yesterday: 61 °F (at 11:45 am)
Minimum temperature yesterday: 48 °F (at 2:45 am)
Average temperature yesterday: 55 °F

High & Low Weather Summary for the Past Weeks

 TemperatureHumidityPressure
High72 °F (Nov 25, 10:45 am)100% (Nov 18, 5:15 pm)30.33 "Hg (Nov 18, 5:15 pm)
Low48 °F (Dec 1, 2:45 am)39% (Nov 30, 4:15 pm)29.77 "Hg (Nov 28, 3:15 am)
Average62 °F80%30.03 "Hg
* Reported Nov 17 10:15 pm — Dec 2 10:15 pm, Valletta, Weather by CustomWeather, © 2016

Note: Actual official high and low records may vary slightly from our data, if they occured in-between our weather recording intervals... More about our weather records

Advertising

Valletta Weather History for the Previous 24 Hours

Scroll right to see more
 ConditionsComfort  
Time TempWeatherWind HumidityBarometerVisibility
10:15 pm
Fri, Dec 2
57 °FPassing clouds.7 mph67%30.09 "HgN/A
9:45 pm57 °FPassing clouds.7 mph63%30.09 "HgN/A
9:15 pm57 °FPassing clouds.7 mph67%30.09 "HgN/A
8:45 pm57 °FPassing clouds.6 mph63%30.12 "HgN/A
8:15 pm57 °FPassing clouds.8 mph63%30.12 "HgN/A
7:45 pm57 °FPassing clouds.6 mph63%30.12 "HgN/A
7:15 pm57 °FPassing clouds.8 mph63%30.12 "HgN/A
5:45 pm59 °FPassing clouds.8 mph59%30.09 "HgN/A
5:15 pm59 °FPassing clouds.10 mph59%30.09 "HgN/A
4:45 pm59 °FPartly sunny.12 mph59%30.09 "HgN/A
4:15 pm61 °FPartly sunny.13 mph55%30.09 "HgN/A
3:15 pm61 °FPartly sunny.13 mph59%30.09 "HgN/A
2:45 pm61 °FPartly sunny.13 mph59%30.09 "HgN/A
2:15 pm61 °FPartly sunny.15 mph63%30.12 "HgN/A
1:45 pm63 °FPartly sunny.13 mph56%30.12 "HgN/A
1:15 pm61 °FPartly sunny.15 mph59%30.12 "HgN/A
12:45 pm61 °FPartly sunny.12 mph59%30.12 "HgN/A
12:15 pm63 °FScattered clouds.15 mph52%30.15 "HgN/A
11:45 am63 °FPartly sunny.13 mph52%30.15 "HgN/A
11:15 am61 °FPartly sunny.14 mph59%30.18 "HgN/A
10:45 am61 °FPartly sunny.12 mph59%30.18 "HgN/A
10:15 am61 °FPartly sunny.10 mph59%30.18 "HgN/A
9:45 am59 °FPartly sunny.13 mph63%30.18 "HgN/A
9:15 am59 °FScattered clouds.8 mph63%30.18 "HgN/A
8:45 am59 °FPartly sunny.9 mph63%30.18 "HgN/A
8:15 am57 °FPartly sunny.6 mph67%30.15 "HgN/A
7:45 am57 °FPartly sunny.9 mph63%30.15 "HgN/A
7:15 am55 °FPartly sunny.9 mph67%30.15 "HgN/A
6:45 am55 °FPassing clouds.9 mph63%30.15 "HgN/A
6:15 am55 °FPassing clouds.8 mph63%30.15 "HgN/A
5:45 am57 °FPassing clouds.10 mph59%30.15 "HgN/A
5:15 am57 °FPassing clouds.13 mph63%30.15 "HgN/A
4:45 am57 °FPassing clouds.9 mph63%30.15 "HgN/A
4:15 am57 °FPassing clouds.8 mph59%30.18 "HgN/A
3:45 am57 °FPassing clouds.10 mph63%30.18 "HgN/A
3:15 am57 °FMostly cloudy.8 mph67%30.18 "HgN/A
2:45 am57 °FPassing clouds.8 mph67%30.18 "HgN/A
2:15 am55 °FPassing clouds.7 mph67%30.21 "HgN/A
1:45 am57 °FPassing clouds.10 mph63%30.21 "HgN/A
1:15 am57 °FPassing clouds.8 mph63%30.21 "HgN/A
12:45 am57 °FPassing clouds.12 mph63%30.21 "HgN/A
12:15 am57 °FPassing clouds.13 mph67%30.21 "HgN/A
11:45 pm
Thu, Dec 1
57 °FPassing clouds.10 mph67%30.21 "HgN/A
11:15 pm57 °FPassing clouds.10 mph67%30.21 "HgN/A
Weather by CustomWeather, © 2016

See weather overviewHow to use our weather pages